Date,TemperatureHighF,TemperatureAvgF,TemperatureLowF,DewpointHighF,DewpointAvgF,DewpointLowF,HumidityHigh,HumidityAvg,HumidityLow,PressureMaxIn,PressureMinIn,WindSpeedMaxMPH,WindSpeedAvgMPH,GustSpeedMaxMPH,PrecipitationSumIn
2013-4-17,45.9,41.4,39.9,45.4,38.8,-99.9,98,96,98,29.98,29.57,24,-13,0,2.90
2013-4-18,42.1,37.7,33.6,41.6,37.2,33.1,98,98,98,29.74,29.55,19,10,0,0.93
2013-4-19,44.2,35.8,30.0,39.8,34.0,29.5,98,94,73,30.11,29.70,23,12,0,0.00
2013-4-20,49.6,38.2,25.3,37.7,30.3,24.8,98,76,42,30.31,30.12,10,4,0,0.00
2013-4-21,69.4,53.9,39.0,57.1,46.7,32.8,98,80,40,30.27,30.07,16,6,0,0.06
2013-4-22,68.2,53.2,36.5,64.3,51.7,36.0,98,95,70,30.19,29.91,18,4,0,0.59
2013-4-23,42.3,35.8,31.5,41.6,35.3,31.0,98,98,93,30.14,30.06,19,11,0,0.02
2013-4-24,57.7,42.1,26.2,47.9,35.1,25.7,98,80,41,30.15,29.99,14,6,0,0.00
2013-4-25,66.0,48.7,32.0,44.2,37.3,31.5,98,70,39,30.26,30.10,11,5,0,0.00
2013-4-26,68.5,58.4,49.3,64.0,55.0,44.6,98,89,70,30.18,30.05,14,6,0,0.00
2013-4-27,72.7,57.0,43.3,65.2,54.0,42.8,98,91,53,30.20,29.95,11,3,0,0.00
2013-4-28,78.4,62.4,43.3,67.4,57.0,42.8,98,85,52,29.96,29.70,10,4,0,0.00
2013-4-29,84.9,68.6,53.4,75.5,66.0,52.8,98,93,58,29.74,29.50,8,4,0,0.00
2013-4-30,85.1,75.2,59.5,73.2,63.9,53.9,98,70,51,29.84,29.50,14,8,0,0.00
2013-5-1,58.6,49.7,39.6,58.0,49.2,39.1,98,98,98,30.31,29.85,21,11,0,0.00
2013-5-2,42.4,34.4,32.7,41.9,33.9,32.2,98,98,98,30.42,30.27,20,12,0,1.60
2013-5-3,34.7,33.4,32.5,34.2,32.9,32.0,98,98,98,30.31,29.90,14,10,0,0.59
2013-5-4,46.9,40.6,33.6,46.4,40.1,33.1,98,98,98,30.02,29.85,11,6,0,0.78
2013-5-5,61.0,50.2,43.0,60.4,49.7,42.5,98,98,98,30.07,30.00,10,6,0,0.01
2013-5-6,77.5,59.2,45.1,72.3,56.1,44.6,98,91,52,30.06,29.96,7,3,0,0.00
2013-5-7,82.0,64.3,45.1,71.5,54.7,44.6,98,77,32,30.03,29.92,6,1,0,0.00
2013-5-8,74.8,61.1,48.2,71.5,60.1,47.7,98,97,76,29.96,29.88,8,2,0,0.14
2013-5-9,71.4,60.8,54.1,70.8,60.2,53.5,98,98,98,29.88,29.78,15,5,0,1.68
2013-5-10,70.7,55.9,48.4,68.5,55.1,47.9,98,97,79,29.99,29.87,14,6,0,0.00
2013-5-11,58.8,52.2,40.1,53.9,39.1,24.2,98,66,28,30.16,29.91,24,10,0,0.00
2013-5-12,64.9,49.0,33.8,41.6,32.7,18.9,98,62,18,30.22,30.08,12,4,0,0.00
2013-5-13,77.4,60.4,36.1,65.2,47.6,35.6,98,67,39,30.09,29.79,16,4,0,0.00
2013-5-14,96.6,80.5,62.1,79.5,65.1,54.2,98,66,33,29.78,29.54,15,5,0,0.00
2013-5-15,85.3,72.7,56.5,64.0,47.2,-26.5,98,50,1,29.88,29.70,9,4,0,0.01
2013-5-16,82.9,71.6,53.8,81.6,69.8,53.2,98,95,60,29.87,29.74,11,3,0,0.00
2013-5-17,83.5,73.2,63.5,80.6,71.3,62.9,98,94,72,29.89,29.78,10,3,0,0.00
2013-5-18,86.0,74.0,60.4,81.8,72.4,59.8,98,95,78,29.90,29.72,13,4,0,0.00
2013-5-19,89.2,75.8,61.3,83.9,71.4,60.7,98,88,47,29.75,29.48,20,7,0,1.57
2013-5-20,81.3,69.5,62.1,71.3,65.9,61.5,98,90,69,29.58,29.48,11,5,0,0.39
2013-5-21,71.8,64.4,58.1,65.8,60.5,55.4,98,88,68,29.62,29.50,14,5,0,0.00
2013-5-22,65.8,58.5,54.0,65.2,57.9,53.4,98,98,98,29.83,29.59,13,6,0,0.00
2013-5-23,73.2,61.1,52.5,63.8,54.3,48.8,98,81,47,30.23,29.83,12,6,0,0.00
2013-5-24,73.4,61.2,45.5,62.4,54.6,45.0,98,81,52,30.32,30.11,12,5,0,0.04
2013-5-25,60.4,54.5,51.8,57.1,53.6,51.3,98,97,80,30.21,30.06,18,8,0,0.92
2013-5-26,61.2,55.6,51.4,60.6,55.0,50.9,98,98,98,30.10,29.82,14,8,0,0.98
2013-5-27,78.8,66.1,57.7,78.2,65.5,57.1,98,98,98,29.93,29.61,15,4,0,1.30
2013-5-28,86.7,71.7,63.7,81.1,70.9,63.1,98,97,80,29.71,29.55,10,3,0,0.46
2013-5-29,82.8,70.3,64.9,82.2,69.7,64.3,98,98,98,29.73,29.60,17,5,0,2.65
2013-5-30,73.6,69.7,64.8,73.0,69.1,64.2,98,98,98,29.62,29.49,11,6,0,0.10
2013-5-31,79.5,70.8,62.1,78.9,70.2,61.5,98,98,98,29.64,29.57,15,6,0,0.00
2013-6-1,71.8,63.5,56.3,71.2,62.9,55.7,98,98,98,29.87,29.56,14,6,0,0.31
2013-6-2,72.5,58.8,49.6,62.3,55.4,49.1,98,90,56,30.02,29.87,14,6,0,0.03
2013-6-3,75.2,61.9,43.2,65.8,55.6,42.7,98,82,54,30.03,29.87,12,4,0,0.00
2013-6-4,67.6,62.1,56.7,67.0,61.5,56.1,98,98,98,30.02,29.90,14,6,0,0.38
2013-6-5,72.0,64.0,56.7,71.4,63.4,56.1,98,98,98,29.95,29.86,10,4,0,0.57
2013-6-6,71.4,61.3,53.6,70.8,60.7,53.0,98,98,96,29.90,29.84,12,4,0,0.00
2013-6-8,71.4,66.4,64.6,70.8,65.8,64.0,98,98,98,29.80,29.70,11,6,0,0.26
2013-6-9,74.5,66.3,59.9,73.9,65.7,59.3,98,98,98,29.71,29.63,9,5,0,0.43
2013-6-10,86.4,67.9,57.2,83.1,67.0,56.6,98,97,83,29.84,29.70,7,2,0,0.00
2013-6-11,88.3,77.1,62.2,87.7,76.5,61.6,98,98,98,29.84,29.62,11,3,0,0.00
2013-6-12,91.4,78.2,65.7,90.8,77.6,65.1,98,98,97,29.81,29.59,21,7,0,0.14
2013-6-13,86.0,73.6,61.0,77.7,67.1,60.4,98,83,47,30.00,29.82,18,5,0,0.00
2013-6-14,77.0,69.0,62.8,76.4,68.4,62.2,98,98,90,30.00,29.78,18,5,0,2.44
2013-6-15,87.1,72.9,64.4,85.5,72.3,63.8,98,98,95,29.95,29.77,12,4,0,0.27
2013-6-16,93.0,76.7,65.3,81.1,66.3,54.6,98,76,28,29.91,29.86,6,3,0,0.00
2013-6-17,91.6,75.7,58.8,78.8,66.1,58.2,98,76,38,29.92,29.84,10,3,0,0.00
2013-6-18,87.8,74.1,58.8,76.6,65.9,58.2,98,79,49,29.95,29.88,8,3,0,0.00
2013-6-19,86.7,75.9,65.1,81.9,72.1,64.5,98,89,56,30.00,29.90,10,4,0,0.00
2013-6-20,89.8,80.3,68.4,83.1,75.6,67.8,98,87,66,29.96,29.83,16,6,0,0.00
2013-6-21,91.8,81.6,74.1,91.2,81.0,73.5,98,98,96,29.91,29.77,14,6,0,0.00
2013-6-22,95.2,84.0,72.5,88.0,81.8,71.9,98,93,73,29.95,29.77,13,5,0,0.00
2013-6-23,84.2,77.0,66.7,83.6,76.4,66.1,98,98,96,29.92,29.68,17,5,0,0.28
2013-6-24,80.1,73.1,68.0,79.5,72.5,67.4,98,98,98,29.90,29.74,24,4,0,1.73
2013-6-25,90.9,79.8,71.2,88.3,78.5,70.6,98,96,75,29.76,29.64,8,4,0,0.26
2013-6-26,92.1,82.3,73.4,91.0,79.5,72.8,98,92,63,29.79,29.59,13,4,0,0.27
2013-6-27,88.7,77.0,64.6,84.2,75.0,64.0,98,94,68,29.88,29.78,10,4,0,0.01
2013-6-28,87.3,78.3,68.9,75.2,66.7,60.1,98,71,41,29.82,29.71,23,9,0,0.01
2013-6-29,78.1,71.1,65.5,74.4,68.9,64.7,98,93,70,29.84,29.70,19,8,0,0.25
2013-6-30,82.2,69.8,58.8,70.2,59.7,50.1,98,75,37,30.03,29.84,12,5,0,0.00
2013-7-1,85.1,70.8,53.2,69.9,58.3,52.6,98,70,37,30.08,30.02,14,3,0,0.00
2013-7-2,87.4,71.1,54.3,74.1,61.4,45.0,98,76,23,30.08,29.95,11,3,0,0.13
2013-7-3,83.8,71.4,56.7,79.4,66.6,56.1,98,87,51,30.00,29.91,9,2,0,0.00
2013-7-4,88.9,76.1,60.1,74.2,67.8,59.5,98,79,47,29.97,29.88,10,3,0,0.00
2013-7-5,90.7,79.3,66.0,74.2,70.0,65.4,98,76,51,29.93,29.84,10,4,0,0.00
2013-7-6,93.6,79.8,70.0,78.9,73.6,69.4,98,84,50,29.89,29.80,10,4,0,0.00
2013-7-7,95.0,83.8,73.8,86.1,77.6,73.2,98,84,53,29.86,29.79,12,4,0,0.03
2013-7-8,93.4,83.0,77.4,88.6,81.9,76.8,98,97,82,29.91,29.84,7,3,0,0.00
2013-7-9,99.1,84.3,75.6,91.6,82.1,75.0,98,94,70,29.91,29.80,9,3,0,0.04
2013-7-10,88.3,77.7,63.3,79.6,67.8,57.8,98,76,37,30.00,29.85,12,4,0,0.00
2013-7-11,87.6,74.4,58.5,71.9,64.1,57.9,98,74,45,30.06,29.95,10,3,0,0.00
2013-7-12,90.0,77.4,65.3,73.3,69.1,64.7,98,78,51,30.02,29.93,11,5,0,0.01
2013-7-13,81.3,74.1,67.3,78.4,70.9,65.1,98,90,78,30.00,29.93,11,5,0,0.02
2013-7-14,90.3,79.3,65.8,79.2,71.8,65.2,98,81,53,30.12,30.00,10,4,0,0.02
2013-7-15,92.7,78.8,64.2,86.0,76.0,63.6,98,92,70,30.17,30.07,9,3,0,0.00
2013-7-16,97.2,85.6,74.3,88.3,79.8,73.7,98,85,57,30.21,30.14,7,3,0,0.00
2013-7-17,99.0,85.6,74.7,88.8,79.1,74.1,98,84,47,30.25,30.12,6,2,0,0.00
2013-7-18,98.4,86.9,74.8,87.0,78.3,73.6,98,79,47,30.14,29.87,12,4,0,0.00
2013-7-19,98.1,85.7,72.5,85.3,78.7,71.1,98,82,44,29.87,29.76,12,5,0,0.00
2013-7-20,95.0,78.4,59.7,78.1,67.2,59.1,98,74,34,29.91,29.80,7,2,0,0.00
2013-7-21,83.3,74.4,64.4,82.5,73.8,63.8,98,98,86,29.86,29.74,11,2,0,0.17
2013-7-22,97.7,79.7,66.9,89.8,75.2,66.3,98,88,56,29.80,29.64,14,4,0,0.67
2013-7-23,81.0,70.1,63.3,75.1,68.6,62.7,98,95,72,29.93,29.74,9,3,0,0.00
2013-7-24,87.4,70.7,55.9,74.2,65.4,55.3,98,85,50,30.00,29.92,8,2,0,0.00
2013-7-25,88.5,76.5,60.4,79.1,71.9,59.8,98,87,59,30.00,29.88,9,4,0,0.00
2013-7-26,81.0,72.0,61.0,75.3,66.6,60.4,98,85,56,29.98,29.88,17,6,0,0.02
2013-7-27,74.8,62.8,51.8,63.1,56.1,51.3,98,82,48,30.03,29.92,11,5,0,0.00
2013-7-28,78.1,68.1,55.6,64.8,58.7,55.0,98,75,51,30.00,29.92,12,4,0,0.00
2013-7-29,76.1,69.7,53.4,71.4,66.7,52.8,98,91,68,30.05,29.99,9,4,0,0.00
2013-7-30,72.3,67.9,63.9,71.7,67.3,63.3,98,98,98,30.02,29.97,7,3,0,0.22
2013-7-31,88.3,73.7,63.0,82.0,71.7,62.4,98,94,68,30.05,29.95,10,3,0,0.01
2013-8-1,91.0,73.7,59.9,79.7,68.3,59.3,98,86,39,30.01,29.84,7,2,0,0.00
2013-8-2,84.7,73.0,65.1,84.1,72.3,64.5,98,98,87,29.95,29.82,15,3,0,0.00
2013-8-3,83.7,71.5,59.5,73.7,65.0,58.9,98,83,52,30.12,29.95,7,2,0,0.00
2013-8-4,85.3,71.4,53.6,73.0,64.4,53.0,98,81,52,30.13,29.98,11,3,0,0.00
2013-8-5,88.0,74.4,66.0,85.1,73.7,65.4,98,98,90,29.98,29.69,7,3,0,0.00
2013-8-6,92.7,79.0,66.2,87.7,75.6,65.6,98,90,66,29.83,29.70,11,3,0,0.00
2013-8-7,83.1,74.6,66.4,79.5,72.8,65.8,98,95,79,29.95,29.73,12,4,0,0.00
2013-8-8,84.9,71.5,56.5,77.0,67.8,55.9,98,89,64,29.97,29.89,7,2,0,0.00
2013-8-9,85.3,73.8,60.6,80.9,69.8,60.0,98,89,54,30.07,29.93,9,3,0,0.00
2013-8-10,88.3,72.7,54.7,74.2,65.0,54.1,98,80,52,30.14,30.02,8,2,0,0.00
2013-8-11,89.6,77.6,66.0,78.3,72.6,65.4,98,86,62,30.06,29.92,14,4,0,0.08
2013-8-12,85.1,73.1,60.6,81.3,69.3,60.0,98,90,58,29.99,29.92,13,4,0,0.24
2013-8-13,80.4,68.0,56.1,75.0,63.7,55.5,98,88,58,30.11,29.98,8,2,0,0.00
2013-8-14,79.7,67.2,51.8,71.2,57.9,51.3,98,75,46,30.16,30.06,6,2,0,0.00
2013-8-15,76.8,66.6,55.9,68.6,63.1,55.3,98,89,65,30.09,30.02,9,2,0,0.00
2013-8-16,82.0,66.7,49.1,71.1,59.9,48.6,98,82,51,30.14,30.06,9,2,0,0.01
2013-8-17,85.5,69.7,51.4,73.5,61.3,50.9,98,79,43,30.16,30.05,8,2,0,0.00
2013-8-18,87.1,72.6,55.2,74.6,65.8,54.6,98,82,50,30.11,30.00,10,2,0,0.00
2013-8-19,88.5,75.5,59.5,80.0,71.6,58.9,98,89,66,30.02,29.90,10,3,0,0.01
2013-8-20,93.0,81.1,70.3,85.1,76.3,69.7,98,87,62,29.94,29.85,10,5,0,0.01
2013-8-21,96.8,83.2,72.3,83.7,76.9,71.7,98,84,54,29.93,29.88,13,4,0,0.01
2013-8-22,88.7,78.5,69.1,85.4,77.4,68.5,98,97,82,30.03,29.92,7,3,0,0.00
2013-8-23,77.2,69.6,66.7,76.6,69.0,66.1,98,98,98,30.04,29.99,7,2,0,0.00
2013-8-24,93.2,82.4,72.0,89.5,79.5,71.4,98,92,69,30.07,29.97,11,4,0,0.01
2013-8-25,97.9,84.7,73.9,86.5,80.0,73.3,98,88,56,30.10,30.00,10,5,0,0.00
2013-8-26,100.9,87.3,73.4,89.0,79.8,72.8,98,81,48,30.04,29.89,9,5,0,0.00
2013-8-27,100.6,88.3,78.6,85.4,81.3,78.0,98,82,53,29.91,29.79,12,7,0,0.00
2013-8-28,102.4,86.9,73.2,84.4,78.2,72.6,98,79,45,29.94,29.85,8,4,0,0.00
2013-8-29,98.8,85.0,69.6,88.6,79.8,69.0,98,86,59,29.97,29.85,9,3,0,0.00
2013-8-30,104.7,87.8,71.2,90.8,80.7,70.6,98,83,39,29.85,29.70,8,3,0,0.00
2013-8-31,95.2,80.5,68.4,86.8,76.2,67.8,98,89,56,29.78,29.70,8,2,0,0.00
2013-9-1,84.9,75.7,61.9,79.3,71.1,61.3,98,87,59,29.89,29.64,15,6,0,0.10
2013-9-2,82.0,66.7,55.6,73.0,61.6,55.0,98,86,46,29.99,29.89,9,4,0,0.00
2013-9-3,90.3,67.6,47.5,71.5,61.8,47.0,98,85,46,30.05,29.95,8,2,0,0.00
2013-9-4,93.2,76.3,59.4,78.2,68.4,58.8,98,80,47,30.08,29.98,9,2,0,0.00
2013-9-5,92.7,79.0,67.8,83.1,73.8,67.2,98,86,57,30.13,30.03,6,2,0,0.00
2013-9-6,93.6,80.4,66.2,79.7,70.6,65.6,98,76,46,30.06,29.86,9,3,0,0.00
2013-9-7,95.9,82.4,73.8,86.7,78.7,71.2,98,90,59,29.88,29.78,9,4,0,0.00
2013-9-8,90.0,79.1,70.0,89.4,78.5,69.4,98,98,98,29.87,29.75,11,5,0,0.00
2013-9-9,102.0,85.2,72.1,83.4,73.4,70.1,98,73,38,29.80,29.71,13,5,0,0.00
2013-9-10,99.1,85.9,75.6,80.5,74.6,69.9,98,72,46,29.94,29.80,12,5,0,0.00
2013-9-11,88.2,77.1,68.9,86.3,76.1,68.3,98,97,80,30.02,29.93,9,3,0,0.10
2013-9-12,80.1,69.3,56.3,68.5,60.4,52.9,98,78,40,30.12,29.99,14,5,0,0.00
2013-9-13,78.3,67.1,52.5,64.2,56.9,52.0,98,72,46,30.18,30.03,7,3,0,0.00
2013-9-14,78.4,65.8,49.5,56.6,52.6,49.0,98,67,38,30.06,29.83,9,4,0,0.00
2013-9-15,70.9,66.8,60.4,70.3,65.1,54.2,98,95,59,30.15,29.81,13,6,0,0.00
2013-9-16,68.4,61.5,55.6,67.8,60.9,55.0,98,98,98,30.30,30.17,9,5,0,0.00
2013-9-17,66.6,60.8,55.6,66.0,60.2,55.0,98,98,98,30.19,29.91,9,5,0,0.17
2013-9-18,92.1,78.1,66.0,89.0,76.1,65.4,98,94,78,29.91,29.66,12,5,0,0.03
2013-9-19,87.3,76.1,65.8,85.9,75.5,65.2,98,98,95,29.80,29.66,17,5,0,0.16
2013-9-20,70.2,60.8,50.7,67.6,60.0,50.2,98,97,87,29.92,29.81,14,6,0,0.00
2013-9-21,79.2,58.3,43.3,61.8,52.7,42.8,98,85,42,29.97,29.83,8,2,0,0.00
2013-9-22,80.1,65.4,51.4,67.8,60.9,50.9,98,87,63,29.91,29.79,9,3,0,0.00
2013-9-23,78.1,65.1,52.9,70.3,60.2,52.4,98,86,58,29.89,29.75,12,5,0,0.00
2013-9-24,75.7,63.7,54.7,73.2,62.8,54.1,98,97,88,29.83,29.77,10,4,0,0.00
2013-9-25,80.4,66.0,49.5,73.2,63.7,49.0,98,93,76,29.88,29.76,8,3,0,0.00
2013-9-26,77.2,67.6,60.4,75.1,66.9,59.8,98,98,91,29.87,29.78,7,3,0,0.00
2013-9-27,88.7,76.0,65.8,80.7,71.6,65.2,98,88,59,29.89,29.79,16,6,0,0.00
2013-9-28,72.0,62.7,48.6,71.4,62.1,48.1,98,98,98,29.97,29.69,21,6,0,0.20
2013-9-29,79.0,61.0,42.8,64.0,53.0,42.3,98,79,46,30.00,29.84,9,3,0,0.00
2013-9-30,79.9,66.0,53.6,69.6,60.7,53.0,98,85,55,29.85,29.66,12,5,0,0.00
2013-10-1,90.7,71.2,59.4,73.2,63.7,54.1,98,80,44,29.91,29.71,8,3,0,0.00
2013-10-2,87.6,72.5,55.9,77.3,65.6,53.4,98,81,48,29.96,29.79,12,4,0,0.02
2013-10-3,84.0,73.2,67.1,79.2,72.0,66.5,98,96,80,29.79,29.69,7,3,0,0.30
2013-10-4,77.9,66.3,62.4,77.3,65.7,61.8,98,98,98,29.82,29.67,16,6,0,1.04
2013-10-5,64.4,54.7,48.0,52.8,48.1,43.9,98,79,62,29.85,29.70,12,6,0,0.00
2013-10-6,50.0,47.3,42.8,49.5,46.6,42.3,98,97,90,29.83,29.66,12,5,0,0.20
2013-10-7,78.3,60.0,43.0,62.3,52.3,42.5,98,81,41,29.97,29.84,13,4,0,0.00
2013-10-8,79.2,64.3,50.4,62.3,56.3,49.9,98,78,47,30.00,29.89,14,5,0,0.00
2013-10-9,78.3,66.4,52.9,66.5,59.9,52.4,98,82,51,30.03,29.95,11,5,0,0.00
2013-10-10,71.8,57.8,49.3,67.3,57.0,48.8,98,97,85,29.99,29.81,7,2,0,0.00
2013-10-11,70.5,62.1,56.1,69.9,61.5,55.5,98,98,98,29.82,29.69,11,5,0,0.00
2013-10-12,69.6,58.0,42.3,64.2,49.4,41.8,98,77,39,30.19,29.75,14,6,0,0.00
2013-10-13,74.8,52.6,32.0,52.5,42.7,31.5,98,76,32,30.39,30.19,6,1,0,0.00
2013-10-14,66.0,56.9,43.3,60.0,49.2,42.1,98,77,53,30.29,29.73,14,7,0,0.03
2013-10-15,61.0,51.8,46.9,60.4,51.3,46.4,98,98,98,29.87,29.68,16,8,0,0.51
2013-10-16,50.5,46.3,36.5,50.0,45.8,36.0,98,98,98,29.94,29.86,12,6,0,0.00
2013-10-17,67.8,53.8,38.7,54.4,46.5,38.2,98,80,45,29.88,29.74,11,4,0,0.00
2013-10-18,52.3,45.1,36.7,47.0,40.8,36.2,98,86,59,29.99,29.88,12,5,0,0.01
2013-10-19,60.4,46.8,36.0,47.4,42.1,35.5,98,85,54,29.88,29.70,19,6,0,0.00
2013-10-20,66.0,49.9,38.8,56.6,46.8,38.3,98,90,58,29.86,29.63,13,5,0,0.00
2013-10-21,50.5,42.9,39.4,42.8,38.4,33.5,98,86,53,29.92,29.87,11,3,0,0.00
2013-10-22,42.8,39.9,36.7,42.3,39.4,36.2,98,98,98,30.00,29.78,10,4,0,0.12
2013-10-23,45.7,37.7,30.0,43.2,36.9,29.5,98,97,74,30.08,29.98,11,4,0,0.03
2013-10-24,46.4,37.0,29.5,40.1,34.6,29.0,98,92,73,30.30,30.08,10,4,0,0.00
2013-10-25,58.8,43.4,24.6,40.8,35.0,24.1,98,75,50,30.33,29.96,13,5,0,0.00
2013-10-26,55.4,45.0,30.4,43.2,37.0,29.9,98,76,47,30.08,29.87,15,6,0,0.00
2013-10-27,65.8,44.7,24.6,44.2,36.5,24.1,98,77,44,30.05,29.77,9,2,0,0.00
2013-10-28,57.6,44.4,34.0,49.0,42.3,33.5,98,93,71,30.21,29.91,12,5,0,0.00
2013-10-29,57.9,47.9,39.6,57.3,47.3,39.1,98,98,98,30.21,29.93,12,6,0,0.01
2013-10-30,66.0,57.2,52.2,65.4,56.6,51.7,98,98,98,29.94,29.57,13,5,0,0.98
2013-10-31,54.9,45.4,41.7,54.3,44.9,41.2,98,98,98,29.59,29.37,11,5,0,0.01
2013-11-1,58.3,47.9,40.6,53.0,46.4,40.1,98,95,76,29.80,29.42,13,7,0,0.00
2013-11-2,57.4,45.8,34.5,51.3,42.6,34.0,98,90,57,30.05,29.79,13,5,0,0.00
2013-11-3,58.3,47.1,35.1,47.7,40.7,34.6,98,80,55,30.07,29.83,18,7,0,0.00
2013-11-4,56.8,50.0,45.7,56.2,49.1,44.3,98,97,82,30.09,29.82,14,5,0,0.11
2013-11-5,57.9,48.9,41.5,57.3,48.4,41.0,98,98,98,30.10,29.70,10,5,0,1.00
2013-11-6,47.3,38.4,29.8,43.2,36.3,29.3,98,93,66,30.19,29.77,16,7,0,0.01
2013-11-7,48.0,36.5,28.2,46.4,34.8,27.7,98,94,67,30.25,30.16,12,4,0,0.00
2013-11-8,61.2,51.6,27.9,46.2,41.5,27.4,98,70,54,30.21,29.69,19,7,0,0.00
2013-11-9,58.8,48.8,37.0,50.0,44.2,36.5,98,85,59,30.23,29.76,15,7,0,0.00
2013-11-10,53.2,41.0,27.0,39.1,34.7,26.5,98,80,55,30.36,30.08,10,3,0,0.00
2013-11-11,49.5,32.9,16.3,46.6,31.3,15.8,98,95,67,30.65,30.02,17,8,0,0.00
2013-11-12,33.6,20.4,10.2,19.8,15.2,9.7,98,83,45,30.79,30.51,8,4,0,0.00
2013-11-13,52.5,36.5,20.5,31.6,21.9,14.3,81,57,43,30.50,29.96,12,6,0,0.00
2013-11-14,55.0,44.4,37.0,35.9,30.9,23.3,82,60,45,29.96,29.80,11,4,0,0.00
2013-11-15,59.7,43.8,28.4,45.0,38.5,27.9,98,84,55,29.84,29.63,9,2,0,0.00
2013-11-16,67.6,55.6,43.9,67.0,55.0,43.4,98,98,98,29.62,29.22,11,5,0,0.00
2013-11-17,52.9,47.0,39.7,52.4,46.5,39.2,98,98,98,29.88,29.19,13,6,0,0.40
2013-11-18,49.1,37.4,27.5,42.4,35.9,27.0,98,94,75,30.19,29.88,14,5,0,0.00
2013-11-19,56.3,42.9,31.1,43.9,36.4,30.6,98,80,54,30.20,29.92,16,6,0,0.00
2013-11-20,46.2,41.0,34.5,42.1,38.2,31.5,98,91,59,29.93,29.80,15,6,0,0.04
2013-11-21,39.0,31.4,24.8,38.5,30.9,24.3,98,98,98,30.38,29.93,15,7,0,0.00
2013-11-22,27.9,19.6,11.3,27.4,18.7,10.8,98,97,82,30.58,30.39,14,5,0,0.00
2013-11-23,19.2,11.2,0.1,16.9,8.9,-0.3,98,91,66,30.78,30.53,14,6,0,0.00
2013-11-24,30.9,16.8,0.3,14.9,9.1,-0.1,98,75,44,30.70,30.17,10,4,0,0.00
2013-11-25,41.4,30.1,22.5,37.5,28.0,14.7,98,92,63,30.17,30.02,12,5,0,0.00
2013-11-26,29.3,23.9,14.7,28.8,19.3,12.5,98,83,58,30.29,30.06,22,7,0,0.00
2013-11-27,32.7,18.2,5.9,18.2,12.6,5.5,98,81,45,30.33,29.98,8,4,0,0.00
2013-11-28,34.2,23.4,11.5,24.8,19.9,11.0,98,87,64,30.45,29.96,14,4,0,0.00
2013-11-29,41.4,25.7,7.5,32.9,22.5,7.1,98,89,61,30.47,30.14,10,3,0,0.00
2013-11-30,56.7,38.3,29.1,41.6,34.1,28.6,98,87,55,30.14,29.98,8,3,0,0.00
2013-12-1,42.1,33.8,23.2,40.3,32.9,22.7,98,96,81,30.10,29.83,5,2,0,0.00
2013-12-2,49.8,38.3,32.7,49.0,37.8,32.2,98,98,97,29.82,29.46,11,3,0,0.00
2013-12-3,41.7,38.2,34.3,41.2,37.7,33.8,98,98,98,29.58,29.45,7,2,0,0.00
2013-12-4,39.6,30.7,16.3,39.1,30.2,15.8,98,98,98,29.84,29.44,18,7,0,0.05
2013-12-5,18.3,12.5,6.3,16.6,9.9,2.8,98,89,76,30.34,29.82,16,10,0,0.00
2013-12-6,13.5,6.1,-0.2,7.7,0.9,-4.2,98,80,59,30.61,30.33,12,6,0,0.00
2013-12-7,15.1,5.1,-5.3,2.6,-1.8,-5.7,98,75,50,30.71,30.44,8,3,0,0.00
2013-12-8,19.9,14.7,10.2,19.4,13.0,2.1,98,93,69,30.42,29.91,12,6,0,0.00
2013-12-9,14.2,4.1,-2.4,13.7,2.6,-2.8,98,94,66,30.22,29.99,13,5,0,0.00
2013-12-10,23.9,17.4,3.7,19.6,13.1,-0.3,98,84,59,30.14,29.90,19,6,0,0.00
2013-12-11,20.1,6.0,-4.0,19.6,2.4,-4.9,98,86,55,30.58,30.13,16,5,0,0.00
2013-12-12,36.5,17.6,2.8,21.2,11.9,0.6,98,80,50,30.41,30.03,8,3,0,0.00
2013-12-13,43.2,23.6,12.7,34.4,22.4,12.2,98,96,65,30.02,29.87,9,3,0,0.00
2013-12-14,25.5,19.0,11.1,25.0,18.5,10.6,98,98,98,30.08,29.97,11,6,0,0.00
2013-12-15,19.9,13.8,8.8,15.5,12.3,8.4,98,94,74,30.08,29.94,8,3,0,0.00
2013-12-16,28.8,19.5,9.5,28.3,19.0,9.1,98,98,98,30.04,29.90,7,3,0,0.00
2013-12-17,38.7,28.3,15.6,38.2,24.3,15.1,98,86,52,30.13,30.00,20,6,0,0.00
2013-12-18,49.6,33.5,15.1,40.0,29.7,14.6,98,87,59,30.09,29.65,13,3,0,0.00
2013-12-19,37.9,31.0,25.0,37.4,30.5,24.5,98,98,98,29.79,29.67,11,5,0,0.00
2013-12-20,27.9,23.7,20.1,27.4,23.2,19.6,98,98,98,29.82,29.73,11,6,0,0.00
2013-12-21,25.5,21.9,19.0,25.0,21.4,18.5,98,98,98,29.82,29.66,10,4,0,0.00
2013-12-22,25.9,17.5,3.6,25.4,17.1,3.2,98,98,98,30.25,29.67,14,8,0,0.00
2013-12-23,8.6,0.5,-10.1,3.0,-6.1,-16.9,98,75,48,30.48,30.26,14,7,0,0.00
2013-12-24,16.2,1.7,-16.8,15.7,-3.5,-18.6,98,81,45,30.48,30.11,14,3,0,0.00
2013-12-25,34.2,24.3,16.3,33.7,23.8,15.8,98,98,98,30.17,30.05,11,5,0,0.00
2013-12-26,43.3,29.6,17.4,34.7,27.6,16.9,98,93,65,30.15,30.01,9,2,0,0.05
2013-12-27,52.3,34.4,13.5,38.5,29.2,13.0,98,84,48,30.17,29.99,12,3,0,0.00
2013-12-28,56.1,41.2,24.1,40.0,34.1,23.6,98,80,42,29.99,29.70,15,5,0,0.00
2013-12-29,23.4,8.4,-1.7,22.9,0.4,-14.2,98,72,37,30.24,29.90,17,9,0,0.00
2013-12-30,14.2,5.8,-3.1,13.7,0.9,-16.2,98,82,46,30.24,30.03,9,2,0,0.00
2013-12-31,13.5,7.5,0.9,12.6,7.1,0.5,98,98,94,30.23,30.09,10,4,0,0.00
2014-1-1,10.0,6.4,3.6,9.6,6.0,3.2,98,98,98,30.29,30.12,10,7,0,0.00
2014-1-2,3.7,-6.2,-10.8,3.3,-7.0,-11.2,98,96,89,30.40,30.27,8,1,0,0.00